Meteo Giornale » Osservazioni meteo Svizzera » Sion

ore: 17:20 - Osservazioni Meteo Sion
Lat. 46° 13' N Lon. 7° 20' E Alt. 482 metri s.l.m.

poco_nuvoloso Europe/Zurich

20 °C

Poco Nuvoloso

Temp. 24 Ore

12 °C

22 °C

Ovest

24 Km/h

Dew point 13 °C

Umidità 64 %

Visibilità  10 Km

Il sole sorge alle ore 07:24

Il sole tramonta alle ore 19:18

Data e Ora Cielo e Fenomeni T °C DP °C Um. % Pres. hPa Vis. km Vento km/h
Oggi h: 17:20 poco_nuvoloso Poco Nuvoloso 20 13 64 1017 10 O 24
Oggi h: 16:50 poco_nuvoloso Poco Nuvoloso 21 13 60 1018 10 O 27.8
Oggi h: 16:20 poco_nuvoloso Poco Nuvoloso 21 13 60 1018 10 O/SO 25.9
Oggi h: 15:50 poco_nuvoloso Poco Nuvoloso 21 13 60 1018 10 O/SO 22.2
Oggi h: 15:20 poco_nuvoloso Poco Nuvoloso 22 12 53 1018 10 O/SO 16.7
Oggi h: 14:50 poco_nuvoloso Poco Nuvoloso 22 11 49 1018 10 SO 7.4
Oggi h: 14:20 poco_nuvoloso Poco Nuvoloso 21 12 56 1019 10 SO 9.3
Oggi h: 13:50 poco_nuvoloso Poco Nuvoloso 21 12 56 1020 10 SO 7.4
Oggi h: 13:20 poco_nuvoloso Poco Nuvoloso 21 12 56 1020 10 O/SO 7.4
Oggi h: 12:50 poco_nuvoloso Poco Nuvoloso 20 11 56 1020 10 N 3.7
Oggi h: 12:20 poco_nuvoloso Poco Nuvoloso 20 11 56 1021 10 N 1.8
Oggi h: 11:50 poco_nuvoloso Poco Nuvoloso 19 11 59 1021 10 N 3.7
Oggi h: 11:20 poco_nuvoloso Poco Nuvoloso 18 11 63 1022 10 E 7.4
Oggi h: 10:50 poco_nuvoloso Poco Nuvoloso 18 12 67 1022 10 E 9.3
Oggi h: 10:20 poco_nuvoloso Poco Nuvoloso 17 12 72 1022 10 E 9.3
Oggi h: 09:50 poco_nuvoloso Poco Nuvoloso 16 11 72 1023 10 E 7.4
Oggi h: 09:20 nuvoloso Nuvoloso 15 11 76 1023 10 E 9.3
Oggi h: 08:50 nuvoloso Nuvoloso 14 12 87 1023 10 E/NE 9.3
Oggi h: 08:20 molto_nuvoloso Molto Nuvoloso 14 11 82 1023 10 E/NE 11.1
Oggi h: 07:50 molto_nuvoloso Molto Nuvoloso 14 11 82 1023 10 E 11.1
Oggi h: 07:20 molto_nuvoloso Molto Nuvoloso 14 12 87 1023 10 E 7.4
Oggi h: 06:50 molto_nuvoloso Molto Nuvoloso 14 12 87 1023 10 N 1.8
Oggi h: 05:50 sereno Sereno 14 12 87 1023 10 N 3.7
Oggi h: 05:20 sereno Sereno 13 11 87 1023 10 N 0
Oggi h: 04:50 sereno Sereno 14 11 82 1024 10 N 5.5
Oggi h: 04:20 sereno Sereno 13 11 87 1024 10 N 0
Oggi h: 03:50 sereno Sereno 13 11 87 1024 10 N 0
Oggi h: 03:20 sereno Sereno 12 11 93 1024 10 N 0
Oggi h: 02:50 sereno Sereno 13 12 93 1024 10 N 0
Oggi h: 02:20 sereno Sereno 13 12 93 1024 10 N 0
Oggi h: 01:50 sereno Sereno 14 11 82 1024 10 N 1.8
Oggi h: 01:20 sereno Sereno 14 12 87 1024 10 N 5.5
Oggi h: 00:50 sereno Sereno 14 12 87 1023 10 E 9.3
Oggi h: 00:20 sereno Sereno 15 12 82 1023 10 E 7.4
Ieri h: 23:50 sereno Sereno 15 12 82 1023 10 E 9.3
Ieri h: 23:20 sereno Sereno 16 12 77 1023 10 N 5.5
Ieri h: 22:50 sereno Sereno 16 13 82 1023 10 N 5.5
Ieri h: 22:20 poco_nuvoloso Poco Nuvoloso 16 12 77 1022 10 E 7.4
Ieri h: 21:50 molto_nuvoloso Molto Nuvoloso 17 13 77 1022 10 E 7.4
Ieri h: 21:20 poco_nuvoloso Poco Nuvoloso 17 13 77 1022 10 N 1.8
Ieri h: 20:50 nuvoloso Nuvoloso 17 13 77 1021 10 N 0
Ieri h: 20:20 nuvoloso Nuvoloso 18 13 72 1021 10 N 3.7
Ieri h: 19:50 nuvoloso Nuvoloso 18 13 72 1020 10 N 0
Ieri h: 19:20 nuvoloso Nuvoloso 18 13 72 1020 10 N 1.8
Ieri h: 18:50 nuvoloso Nuvoloso 19 13 68 1020 10 N 3.7
Ieri h: 18:20 nuvoloso Nuvoloso 20 13 64 1020 10 N 5.5
Ieri h: 17:50 nuvoloso Nuvoloso 20 13 64 1019 10 O 11.1